Dewpoint
13 13 13 15 14 12 13 13 13 13 13 13 13 12 12 11 11 10 8 4 3 0 5 12 8 -1 -0 2 7 10 9 -0 -2 -1 3 7 8 4 4 1 -1 8 9
13 13 13 14 14 12 12 13 12 13 13 13 13 12 12 12 12 11 9 6 5 2 7 13 14 10 1 4 4 9 8 -0 1 1 0 4 11 8 10 0 -2 -2 8
13 14 13 14 14 13 11 12 12 12 12 13 13 13 12 12 12 11 10 7 5 7 6 12 14 14 10 3 7 5 6 3 9 12 12 12 13 12 4 -2 -4 -4 -3
13 13 13 13 14 14 12 11 11 10 11 12 12 12 11 12 12 10 11 8 6 8 5 10 12 14 13 6 4 5 3 6 10 12 13 13 13 7 1 -3 -4 -4 -4
12 12 12 13 14 14 14 13 11 11 10 10 10 11 11 11 11 11 12 10 8 6 9 10 10 13 13 6 -0 3 3 8 11 11 10 10 7 2 -2 -3 -4 -3 -3
13 13 13 13 14 14 13 14 13 13 13 12 12 12 11 12 13 10 10 11 10 8 6 7 12 11 12 8 0 4 3 6 6 6 6 9 6 1 -3 -3 -3 -2 -2
12 11 12 12 13 13 13 13 13 13 13 13 12 12 12 11 11 10 9 10 10 11 9 5 10 11 11 9 2 1 4 5 3 2 1 2 3 2 1 -2 -2 -1 -1
3 11 10 10 11 12 13 13 13 13 12 12 12 12 12 12 12 11 10 10 10 10 11 10 5 8 12 11 8 -1 3 3 3 2 1 1 1 0 0 -1 -2 -1 -1
-12 -8 4 9 10 11 11 11 11 12 13 13 13 11 12 12 12 12 11 10 10 9 9 11 11 6 7 12 11 7 -1 3 2 2 1 1 2 1 -0 -0 -1 -1 -1
-14 -14 -11 -6 -0 7 10 11 11 11 11 13 13 13 13 11 10 10 11 11 10 10 10 10 11 11 7 9 13 11 6 -0 2 1 0 0 3 3 2 1 -1 -1 -1
-8 -8 -9 -10 -11 -12 -10 -6 2 8 10 11 12 13 13 13 13 13 13 11 9 10 10 9 10 10 11 11 12 13 12 8 -1 1 0 0 2 4 3 2 0 -1 -2
-7 -7 -6 -6 -7 -7 -7 -8 -9 -10 -10 -3 5 8 10 12 13 12 12 12 12 10 8 9 9 9 10 11 12 12 13 13 9 -0 -0 -1 1 3 5 4 3 2 -1
-6 -5 -5 -5 -4 -4 -5 -6 -8 -9 -9 -9 -10 -9 0 6 9 12 12 11 11 12 13 12 10 9 8 9 10 11 11 11 12 9 -0 0 1 2 4 7 3 3 1
-5 -4 -4 -3 -3 -4 -4 -3 -4 -5 -9 -10 -10 -10 -9 -10 -5 5 9 12 11 11 12 11 12 12 9 10 11 10 10 11 11 12 9 1 2 2 3 5 9 5 4
-3 -3 -3 -2 -2 -3 -3 -3 -3 -4 -5 -6 -8 -10 -9 -8 -9 -9 -7 4 10 11 11 12 11 12 12 11 10 11 11 10 11 11 12 10 2 3 3 5 7 9 6
-2 -2 -1 -2 -2 -2 -2 -3 -4 -4 -5 -4 -4 -5 -7 -10 -10 -8 -7 -7 -6 4 10 12 12 12 12 12 12 11 11 11 11 11 11 12 9 4 4 5 6 8 9
-0 -1 -1 -1 -2 -2 -2 -3 -4 -5 -5 -6 -4 -2 -3 -4 -7 -9 -9 -8 -7 -7 -6 -0 8 11 10 11 11 12 11 11 11 11 11 11 13 8 5 5 6 8 8
-0 -1 -1 -1 -0 -1 -2 -3 -4 -5 -6 -6 -4 -2 -2 -3 -5 -6 -6 -7 -8 -8 -7 -5 1 6 10 11 11 11 11 12 11 11 11 11 11 12 9 5 5 8 9
-1 -1 -1 0 -0 -1 -1 -3 -6 -6 -4 -4 -2 -3 -4 -4 -5 -5 -6 -6 -5 -6 -6 -4 -5 3 6 10 11 11 11 11 11 11 11 11 11 11 11 9 8 6 10
-1 -0 0 1 1 -0 -2 -5 -7 -5 -2 -1 -2 -2 -2 -4 -5 -6 -6 -6 -6 -7 -7 -6 -3 -2 4 6 10 10 10 11 11 11 11 11 10 10 10 11 10 8 8
-1 0 1 1 0 0 -1 -3 -3 -4 -4 -3 -2 -1 -2 -1 -1 -1 -1 -1 -2 -3 -3 -2 -4 -5 -1 4 10 10 10 10 10 10 11 10 10 11 11 11 8 10 9
-1 1 1 1 1 1 1 1 2 2 2 2 2 2 2 2 2 2 1 0 1 3 4 6 6 3 2 0 10 10 10 10 9 10 10 10 11 10 9 8 9 10 10
0 1 2 1 1 2 2 2 2 2 3 2 2 2 3 3 3 3 3 2 4 4 5 6 7 8 8 8 9 10 9 10 10 9 9 10 10 9 9 9 9 10 10
1 1 1 1 2 2 2 2 2 1 1 2 2 2 3 3 4 4 4 4 5 4 5 5 6 6 8 9 9 8 9 10 9 8 8 7 7 8 9 10 10 10 9
1 1 1 2 1 1 1 -0 0 1 1 -0 -2 -0 2 2 3 4 4 4 4 5 5 5 5 6 6 8 8 9 9 9 10 9 9 9 9 9 8 8 8 8 9
1 1 1 1 -0 -0 -1 0 1 1 -1 -2 -3 -4 -5 -4 -7 -7 -3 2 3 4 4 4 5 5 6 7 7 7 8 7 6 7 8 9 9 8 7 9 10 10 10
Wind_Speed
7 6 2 4 2 3 2 1 1 1 2 1 1 1 2 3 4 6 6 6 4 3 1 3 4 3 1 2 1 0 2 3 5 6 6 6 4 6 6 5 4 6 6
9 6 5 4 5 3 4 3 3 2 3 3 2 2 3 4 5 5 6 6 4 3 1 2 2 2 2 1 1 1 0 3 6 6 6 6 5 7 3 3 2 2 5
7 6 3 6 6 4 4 4 4 4 4 4 4 4 4 7 4 6 6 6 5 3 3 4 3 5 3 3 4 4 3 3 6 6 7 5 6 3 0 1 1 1 2
7 6 5 7 7 5 4 5 4 5 5 5 6 6 6 6 8 8 8 7 6 5 5 6 7 7 6 5 5 6 6 6 6 6 7 6 4 3 3 2 2 2 1
4 5 4 5 6 6 6 6 6 5 6 7 8 8 8 8 9 8 8 8 8 8 8 8 9 10 9 7 7 7 8 9 8 5 6 6 5 4 4 3 2 2 1
2 2 3 5 5 5 5 6 7 7 7 8 9 10 11 10 10 10 10 10 10 10 10 11 12 11 11 9 8 10 10 11 9 8 7 9 7 5 5 4 4 3 2
3 0 3 5 6 6 7 7 7 8 9 10 11 12 12 13 12 13 13 12 12 12 13 12 12 12 13 11 10 12 14 13 12 10 9 8 9 8 6 6 5 4 4
3 3 4 6 8 9 9 9 9 9 11 11 12 13 14 14 15 15 15 14 14 14 14 14 15 15 16 15 13 13 16 17 16 14 12 10 9 9 7 7 7 6 6
7 7 7 8 10 10 10 12 13 14 15 14 14 14 15 15 16 17 17 17 17 17 16 17 17 18 18 18 16 15 17 19 19 18 16 13 12 10 10 9 9 8 7
10 9 9 10 11 12 14 16 17 15 16 18 17 16 17 17 18 19 19 20 20 19 19 19 19 20 20 20 21 19 18 21 22 21 20 16 14 14 13 11 11 10 9
10 10 10 11 13 14 15 17 18 19 20 21 21 20 20 20 19 19 19 20 22 22 22 21 22 22 23 23 22 23 22 23 24 23 22 20 18 16 15 13 12 12 11
9 10 11 12 14 16 17 18 19 20 21 22 23 23 24 24 24 23 22 21 21 23 24 25 25 26 26 27 27 26 27 28 26 26 24 23 22 19 18 17 14 13 13
11 11 13 16 19 21 21 22 22 22 21 21 22 23 25 26 26 27 27 25 26 25 24 25 27 29 31 31 31 30 30 31 31 28 27 25 25 23 21 20 18 15 15
12 14 16 19 22 23 24 25 24 23 22 22 22 22 25 27 28 28 29 30 29 27 26 28 28 28 31 33 32 31 31 32 32 32 30 29 28 28 25 23 21 19 17
14 16 19 23 26 27 28 27 24 24 24 24 23 23 24 24 26 27 29 31 33 34 33 30 31 31 32 32 34 34 32 32 33 33 33 30 29 30 29 27 23 23 20
16 18 23 26 28 27 23 21 21 21 22 23 24 25 24 24 26 28 29 29 31 33 36 38 37 36 37 36 37 35 36 36 35 35 35 35 31 31 31 30 28 26 25
18 22 26 28 25 21 20 20 20 20 20 20 20 21 22 24 24 26 28 31 31 31 34 34 37 40 42 41 41 40 38 37 37 36 36 37 34 34 34 33 33 30 29
21 24 26 23 21 21 20 19 18 17 17 16 15 17 17 19 21 23 25 28 30 33 35 36 35 35 38 38 40 40 39 36 36 36 36 37 37 35 36 37 36 34 32
23 25 21 19 19 20 20 18 15 13 12 12 13 14 16 18 20 22 24 27 27 29 32 34 37 35 35 35 36 37 38 37 35 34 34 34 36 37 36 38 36 38 34
22 20 19 18 18 18 16 14 11 9 9 11 14 15 17 18 20 22 23 25 26 29 30 32 34 34 34 36 36 38 37 36 35 36 35 33 34 34 33 29 39 45 44
17 16 15 14 14 14 15 14 12 13 13 13 15 16 18 19 19 21 23 24 26 30 31 31 31 32 32 31 31 34 33 33 35 35 33 33 34 34 35 35 32 41 41
14 13 12 11 12 12 13 13 14 15 14 15 15 17 19 20 21 21 23 25 26 30 28 27 25 28 29 29 26 28 23 26 30 31 33 34 34 29 29 30 30 32 39
10 10 10 10 10 11 13 12 11 13 12 15 16 19 19 20 21 22 23 24 23 24 26 24 22 25 26 25 24 20 10 11 17 23 28 33 35 32 31 27 24 25 30
8 9 9 10 8 9 10 12 13 14 16 17 17 17 16 18 19 20 18 19 19 20 23 24 21 20 24 25 21 23 22 26 15 14 20 25 30 34 32 28 25 24 24
8 8 9 9 7 7 7 10 11 12 12 12 13 15 15 16 16 15 17 18 21 22 14 16 16 17 18 22 22 19 18 17 26 28 21 15 15 19 20 22 24 23 22
8 8 8 7 6 6 6 7 10 11 11 12 13 15 16 18 19 19 19 20 19 19 21 20 14 13 12 7 6 7 10 11 16 15 15 34 38 34 27 22 19 17 18
Wind_Direction
30 15 13 337 321 311 263 333 287 267 276 284 284 285 305 318 332 341 341 337 339 344 71 83 52 56 98 189 188 14 56 83 126 144 151 163 168 148 118 101 71 89 69
30 26 351 334 305 312 273 284 291 288 284 280 286 291 298 300 305 327 333 330 324 323 197 168 299 12 22 330 246 210 176 133 134 136 146 153 148 144 117 78 69 106 122
24 17 359 314 319 310 285 274 287 285 278 272 274 282 299 316 326 322 324 319 304 295 239 222 226 262 334 294 273 254 239 185 158 148 139 165 159 157 6 353 342 223 193
33 21 356 326 327 315 297 285 280 280 282 280 278 277 288 289 299 310 313 312 292 276 259 246 241 252 278 304 265 256 231 201 185 175 162 174 200 258 289 304 305 294 259
29 23 347 333 328 326 311 294 288 286 285 286 285 286 290 292 294 297 299 304 294 279 268 268 261 267 253 289 263 248 227 216 211 207 210 214 237 262 265 279 275 262 243
99 346 344 340 330 327 306 290 288 289 287 286 291 290 289 291 289 293 295 293 296 284 274 276 267 266 254 277 265 243 233 231 235 238 237 237 246 259 256 253 248 254 258
46 214 294 293 309 325 336 322 303 291 285 284 284 285 285 285 285 291 293 290 286 287 278 270 263 262 255 265 263 246 239 239 240 243 247 245 250 256 258 258 254 253 252
340 271 260 256 273 289 302 302 309 311 303 295 286 284 284 284 284 287 289 287 287 285 279 274 266 263 259 259 259 252 245 244 248 250 252 253 257 252 259 254 257 261 256
317 297 272 266 268 269 272 276 282 286 292 294 292 284 280 280 283 283 284 284 282 283 280 275 272 264 263 261 259 258 251 247 250 252 253 256 258 256 255 252 251 254 258
311 304 294 284 279 278 276 271 272 273 277 281 283 284 283 280 280 280 284 284 283 280 277 274 271 271 266 264 259 256 257 251 250 252 253 254 255 257 257 253 249 252 256
311 311 305 304 302 297 290 284 280 279 277 277 279 279 279 279 279 281 283 284 282 280 277 272 269 267 266 265 262 254 254 253 252 250 252 253 253 254 256 253 247 249 252
314 316 327 325 319 315 309 301 293 286 281 279 278 277 276 274 273 277 280 284 284 282 278 276 273 269 264 261 258 256 253 252 252 251 250 251 251 252 254 253 249 249 250
327 326 322 324 326 323 319 313 305 299 293 286 280 277 275 273 272 271 271 273 277 279 282 282 275 271 268 265 262 259 258 259 256 251 249 249 251 250 250 251 251 249 249
318 319 321 321 321 318 318 316 310 303 298 295 291 287 283 279 276 274 272 267 269 272 274 278 276 278 270 265 265 263 260 261 258 254 250 247 248 249 249 250 247 249 250
309 310 315 319 319 318 314 311 307 303 299 295 293 289 285 284 281 276 273 270 267 272 271 271 270 270 272 269 266 263 262 261 260 258 255 249 247 246 247 247 247 252 252
308 312 315 318 319 318 318 317 315 313 309 301 295 295 294 290 286 284 283 280 273 270 272 273 273 269 266 270 267 266 263 262 262 261 257 251 245 243 244 244 246 248 252
313 318 320 322 324 324 323 321 320 319 318 313 306 302 301 299 297 289 286 283 281 279 277 272 271 271 271 268 267 265 266 263 263 263 261 257 252 243 242 242 243 247 250
314 318 322 323 322 324 323 325 323 320 318 316 308 302 299 296 295 295 296 293 290 287 282 281 279 275 272 273 268 266 264 268 265 263 262 258 257 255 242 242 245 245 247
313 317 319 319 321 322 325 326 325 323 317 310 306 307 306 305 302 302 303 304 303 294 288 284 278 279 278 274 271 268 266 270 267 263 262 261 259 259 257 240 240 241 242
316 319 321 322 328 331 332 335 339 340 334 325 318 314 316 310 306 304 305 305 303 297 293 289 282 277 278 278 275 271 270 270 269 264 264 262 260 260 259 254 253 244 237
312 312 316 321 329 337 343 349 358 356 347 340 329 323 318 313 311 310 309 309 307 301 294 290 286 279 277 273 278 272 272 267 266 264 262 265 262 261 257 254 258 250 241
311 318 322 327 337 341 348 357 1 1 2 2 350 341 334 328 325 320 316 318 322 319 305 296 288 282 273 273 267 273 276 278 271 266 262 261 255 253 252 257 255 249 245
312 320 320 327 334 349 355 354 1 11 7 4 0 350 350 341 332 326 323 327 331 330 318 311 299 278 272 272 263 255 262 241 274 270 260 254 254 252 248 252 254 252 249
312 322 325 325 338 349 7 19 19 23 18 12 10 9 7 358 3 2 357 348 336 333 332 318 294 288 274 267 265 264 262 260 263 278 265 251 249 248 247 248 248 247 254
306 312 316 333 337 357 10 16 16 11 17 16 7 13 15 16 10 6 4 358 352 347 339 348 324 296 284 264 263 261 257 264 257 245 274 272 241 239 239 243 247 249 253
297 295 307 319 333 350 359 6 8 12 9 1 0 4 6 6 6 6 5 353 339 341 346 346 334 356 299 313 265 250 248 260 280 285 313 266 252 237 249 244 234 234 225
Height
1546 1545 1544 1544 1544 1544 1544 1545 1545 1545 1545 1545 1545 1545 1545 1545 1545 1544 1544 1543 1542 1542 1542 1542 1542 1541 1541 1541 1540 1540 1540 1540 1540 1541 1541 1542 1542 1541 1541 1541 1541 1541 1541
1545 1545 1545 1544 1544 1544 1544 1545 1545 1545 1545 1545 1545 1545 1545 1545 1544 1544 1543 1543 1542 1542 1542 1542 1542 1542 1541 1541 1541 1541 1541 1541 1541 1541 1541 1542 1542 1542 1542 1542 1542 1541 1542
1546 1545 1546 1545 1544 1544 1543 1544 1545 1545 1545 1545 1545 1545 1545 1545 1544 1544 1543 1542 1542 1542 1543 1543 1543 1542 1541 1541 1541 1541 1541 1541 1541 1541 1542 1542 1543 1543 1543 1542 1542 1542 1541
1546 1545 1545 1545 1545 1544 1544 1544 1544 1544 1545 1545 1544 1544 1544 1544 1544 1543 1543 1542 1542 1542 1542 1542 1543 1542 1542 1541 1541 1541 1541 1542 1542 1542 1542 1542 1543 1543 1543 1542 1542 1542 1542
1547 1546 1545 1545 1544 1544 1544 1544 1544 1543 1544 1544 1543 1543 1543 1543 1543 1542 1542 1542 1541 1541 1542 1542 1541 1541 1541 1541 1540 1540 1541 1541 1542 1542 1542 1542 1543 1542 1542 1542 1542 1542 1541
1546 1546 1545 1544 1543 1543 1543 1543 1543 1543 1543 1542 1543 1542 1542 1541 1541 1541 1541 1541 1540 1540 1540 1540 1540 1540 1541 1540 1540 1540 1540 1541 1541 1542 1542 1542 1542 1542 1542 1541 1541 1541 1541
1545 1545 1545 1544 1543 1543 1543 1542 1542 1541 1541 1540 1541 1541 1539 1539 1540 1539 1539 1539 1539 1539 1538 1538 1538 1538 1539 1539 1539 1539 1540 1540 1540 1540 1541 1541 1541 1541 1541 1541 1540 1540 1540
1544 1544 1543 1543 1543 1542 1542 1541 1540 1540 1539 1539 1538 1538 1538 1537 1537 1537 1537 1537 1537 1537 1537 1537 1536 1536 1537 1537 1537 1537 1537 1538 1538 1539 1539 1539 1539 1539 1539 1539 1540 1540 1539
1543 1543 1542 1541 1541 1540 1540 1540 1539 1538 1537 1537 1536 1536 1535 1535 1534 1534 1535 1534 1534 1534 1534 1535 1534 1534 1534 1535 1535 1535 1535 1535 1536 1536 1537 1537 1537 1537 1537 1537 1538 1538 1538
1542 1541 1541 1540 1539 1538 1538 1537 1536 1536 1535 1534 1533 1533 1532 1532 1531 1531 1531 1531 1531 1531 1531 1531 1532 1532 1532 1531 1531 1532 1533 1532 1533 1534 1534 1535 1535 1535 1535 1535 1536 1536 1537
1541 1540 1538 1537 1537 1536 1535 1534 1533 1533 1532 1531 1531 1530 1529 1528 1528 1528 1527 1527 1528 1528 1528 1527 1527 1528 1528 1528 1528 1529 1530 1529 1529 1530 1531 1532 1532 1533 1533 1533 1533 1534 1534
1539 1538 1536 1535 1534 1533 1532 1531 1529 1528 1527 1527 1526 1526 1525 1525 1524 1524 1523 1523 1523 1523 1523 1523 1523 1523 1523 1522 1523 1524 1524 1524 1525 1525 1527 1528 1529 1529 1530 1530 1531 1531 1532
1537 1536 1535 1533 1532 1530 1529 1527 1526 1524 1523 1522 1521 1521 1520 1520 1519 1519 1518 1518 1518 1519 1519 1518 1518 1518 1518 1518 1518 1518 1519 1519 1520 1520 1522 1523 1524 1525 1526 1527 1527 1528 1529
1535 1534 1533 1531 1529 1527 1525 1523 1521 1520 1519 1518 1517 1516 1515 1515 1514 1514 1513 1513 1512 1512 1512 1513 1512 1512 1512 1512 1512 1513 1513 1513 1514 1515 1516 1517 1519 1520 1521 1522 1523 1524 1525
1533 1532 1531 1528 1525 1523 1521 1518 1517 1515 1513 1512 1511 1511 1509 1508 1507 1506 1506 1507 1506 1506 1506 1505 1505 1506 1506 1506 1506 1507 1507 1507 1508 1509 1510 1511 1513 1514 1516 1518 1519 1520 1521
1531 1529 1527 1525 1522 1519 1516 1514 1512 1510 1509 1507 1506 1505 1504 1502 1501 1500 1499 1499 1499 1500 1500 1499 1498 1498 1498 1499 1499 1500 1500 1501 1501 1502 1503 1505 1506 1508 1510 1512 1514 1516 1517
1528 1527 1524 1521 1518 1515 1513 1511 1510 1507 1505 1503 1501 1500 1499 1498 1496 1495 1494 1493 1493 1493 1492 1491 1491 1491 1491 1491 1490 1492 1492 1494 1494 1495 1497 1498 1499 1501 1503 1505 1507 1509 1512
1525 1523 1520 1517 1514 1511 1510 1508 1506 1503 1501 1498 1497 1495 1494 1493 1492 1490 1488 1488 1487 1486 1485 1484 1484 1484 1484 1483 1482 1483 1484 1485 1486 1487 1488 1490 1492 1494 1495 1497 1500 1502 1504
1522 1520 1517 1515 1512 1509 1507 1506 1503 1500 1497 1495 1493 1492 1491 1490 1488 1487 1485 1483 1482 1480 1478 1477 1476 1477 1477 1476 1475 1475 1476 1477 1478 1479 1480 1481 1484 1485 1487 1489 1491 1493 1496
1519 1517 1514 1512 1510 1507 1505 1503 1501 1499 1495 1494 1493 1491 1490 1488 1486 1483 1480 1478 1476 1474 1471 1471 1469 1468 1469 1469 1468 1467 1468 1469 1470 1470 1471 1473 1475 1476 1479 1481 1483 1484 1484
1517 1515 1513 1511 1508 1506 1503 1500 1499 1497 1495 1493 1492 1490 1487 1485 1482 1479 1476 1474 1471 1467 1465 1464 1464 1461 1459 1461 1462 1460 1459 1460 1461 1462 1463 1465 1466 1469 1471 1473 1474 1476 1478
1514 1513 1511 1509 1507 1504 1502 1500 1498 1496 1494 1492 1490 1487 1485 1481 1478 1476 1472 1470 1466 1462 1459 1458 1456 1454 1452 1454 1455 1456 1453 1452 1452 1454 1456 1458 1459 1461 1463 1465 1466 1467 1471
1512 1511 1509 1507 1506 1504 1502 1500 1498 1495 1493 1490 1488 1485 1481 1477 1474 1471 1468 1465 1464 1460 1455 1452 1451 1450 1447 1447 1449 1449 1450 1448 1448 1448 1449 1450 1453 1454 1456 1459 1460 1461 1464
1510 1509 1507 1506 1504 1502 1501 1498 1495 1492 1490 1488 1486 1483 1480 1476 1472 1469 1467 1463 1461 1458 1454 1449 1448 1445 1443 1441 1443 1443 1444 1446 1446 1445 1444 1445 1446 1448 1450 1453 1455 1457 1460
1508 1507 1506 1504 1503 1501 1499 1497 1495 1493 1491 1488 1487 1483 1479 1475 1472 1470 1466 1463 1459 1457 1453 1450 1445 1443 1440 1437 1437 1438 1439 1441 1441 1441 1443 1442 1441 1444 1445 1447 1450 1452 1454
1506 1505 1504 1503 1501 1500 1499 1497 1495 1493 1491 1489 1486 1483 1479 1476 1473 1469 1466 1462 1459 1457 1454 1449 1444 1441 1438 1436 1435 1434 1435 1436 1438 1439 1437 1439 1436 1436 1439 1441 1443 1445 1445